TRA6082 LFBE-EHRD

Flight info

Callsign TRA6082
Flight time 1h 13m
Altitude 34000
Route BUGUS DCT ADABI DCT BOKNO DCT DEVRO DCT VANAD DCT PIWIZ DCT VADOM DCT BAMES DCT ARSAF DCT EGOZE DCT CMB DCT VEKIN DCT ADUTO N873 FERDI Y18 DENUT
Aircraft A21N/M-SDE2E3FGHIRWXY/LB1

Departure

Time 2026-05-07 21:49
Airport Bergerac Dordogne-Périgord airport (LFBE)

Arrival

Time 2026-05-07 23:02
Airport Rotterdam The Hague Airport (EHRD)
Time Latitude Longitude Altitude Speed Heading
2026-05-07 21:27 44.82269 0.51536 180 ft 0 kts 309°
2026-05-07 21:44 44.82269 0.51534 180 ft 0 kts 309°
2026-05-07 21:44 44.82272 0.51529 180 ft 1 kts 309°
2026-05-07 21:45 44.82277 0.51521 180 ft 1 kts 309°
2026-05-07 21:45 44.82294 0.51492 180 ft 8 kts 309°
2026-05-07 21:45 44.82313 0.51430 180 ft 11 kts 286°
2026-05-07 21:45 44.82324 0.51254 180 ft 14 kts 269°
2026-05-07 21:46 44.82329 0.51138 180 ft 14 kts 274°
2026-05-07 21:46 44.82337 0.50995 180 ft 15 kts 274°
2026-05-07 21:46 44.82346 0.50842 180 ft 16 kts 275°
2026-05-07 21:46 44.82360 0.50687 180 ft 15 kts 293°
2026-05-07 21:47 44.82435 0.50662 180 ft 13 kts
2026-05-07 21:47 44.82513 0.50716 180 ft 0 kts 88°
2026-05-07 21:47 44.82513 0.50726 180 ft 7 kts 90°
2026-05-07 21:48 44.82497 0.51061 180 ft 64 kts 96°
2026-05-07 21:48 44.82443 0.51985 182 ft 126 kts 95°
2026-05-07 21:48 44.82378 0.53445 383 ft 155 kts 92°
2026-05-07 21:48 44.82297 0.55088 618 ft 184 kts 94°
2026-05-07 21:49 44.82197 0.56836 1371 ft 171 kts 95°
2026-05-07 21:49 44.82104 0.58451 2109 ft 166 kts 95°
2026-05-07 21:49 44.82005 0.60180 2383 ft 188 kts 95°
2026-05-07 21:49 44.82033 0.62111 2582 ft 209 kts 78°
2026-05-07 21:50 44.82787 0.63939 2743 ft 230 kts 43°
2026-05-07 21:50 44.84013 0.65540 2977 ft 252 kts 51°
2026-05-07 21:50 44.85122 0.67484 3560 ft 262 kts 53°
2026-05-07 21:50 44.86231 0.69538 4372 ft 265 kts 54°
2026-05-07 21:51 44.87338 0.71634 5240 ft 268 kts 54°
2026-05-07 21:51 44.88451 0.73760 6105 ft 272 kts 53°
2026-05-07 21:51 44.89579 0.75924 6922 ft 275 kts 53°
2026-05-07 21:51 44.90723 0.78122 7676 ft 281 kts 54°
2026-05-07 21:52 44.91888 0.80363 8429 ft 285 kts 54°
2026-05-07 21:52 44.93068 0.82640 9204 ft 289 kts 54°
2026-05-07 21:52 44.94268 0.84954 9959 ft 294 kts 53°
2026-05-07 21:52 44.95499 0.87333 10421 ft 309 kts 53°
2026-05-07 21:53 44.96826 0.89845 10687 ft 330 kts 50°
2026-05-07 21:53 44.98493 0.92211 10979 ft 348 kts 37°
2026-05-07 21:53 45.00612 0.93934 11509 ft 357 kts 20°
2026-05-07 21:53 45.03040 0.94761 12177 ft 360 kts
2026-05-07 21:54 45.05553 0.94678 12869 ft 363 kts 353°
2026-05-07 21:54 45.08035 0.94207 13585 ft 367 kts 348°
2026-05-07 21:54 45.10555 0.93533 14268 ft 370 kts 346°
2026-05-07 21:54 45.13092 0.92773 14906 ft 374 kts 346°
2026-05-07 21:55 45.15653 0.91993 15557 ft 378 kts 346°
2026-05-07 21:55 45.18236 0.91226 16194 ft 382 kts 346°
2026-05-07 21:55 45.20852 0.90475 16836 ft 385 kts 347°
2026-05-07 21:55 45.23496 0.89739 17464 ft 388 kts 347°
2026-05-07 21:56 45.26162 0.89011 18083 ft 392 kts 347°
2026-05-07 21:56 45.28851 0.88285 18627 ft 395 kts 347°
2026-05-07 21:56 45.31524 0.87565 19123 ft 399 kts 347°
2026-05-07 21:56 45.34259 0.86829 19626 ft 402 kts 347°
2026-05-07 21:57 45.37019 0.86084 20134 ft 405 kts 347°
2026-05-07 21:57 45.39798 0.85332 20651 ft 408 kts 347°
2026-05-07 21:57 45.42598 0.84573 21157 ft 411 kts 347°
2026-05-07 21:57 45.45423 0.83806 21652 ft 415 kts 347°
2026-05-07 21:58 45.48271 0.83030 22142 ft 418 kts 347°
2026-05-07 21:58 45.51141 0.82249 22610 ft 421 kts 346°
2026-05-07 21:58 45.54014 0.81465 23064 ft 424 kts 346°
2026-05-07 21:58 45.56924 0.80670 23512 ft 427 kts 346°
2026-05-07 21:59 45.59855 0.79869 23848 ft 432 kts 346°
2026-05-07 21:59 45.62816 0.79059 24195 ft 434 kts 346°
2026-05-07 21:59 45.65790 0.78245 24582 ft 436 kts 346°
2026-05-07 21:59 45.68783 0.77425 24913 ft 439 kts 346°
2026-05-07 22:00 45.71759 0.76609 25251 ft 442 kts 346°
2026-05-07 22:00 45.74827 0.75767 25612 ft 444 kts 346°
2026-05-07 22:00 45.77830 0.74941 25963 ft 446 kts 346°
2026-05-07 22:00 45.80894 0.74096 26274 ft 449 kts 346°
2026-05-07 22:01 45.83964 0.73250 26608 ft 451 kts 346°
2026-05-07 22:01 45.87051 0.72398 26947 ft 452 kts 346°
2026-05-07 22:01 45.90150 0.71542 27259 ft 454 kts 346°
2026-05-07 22:01 45.93263 0.70682 27567 ft 456 kts 346°
2026-05-07 22:02 45.96388 0.69817 27847 ft 458 kts 346°
2026-05-07 22:02 45.99527 0.68947 28193 ft 460 kts 346°
2026-05-07 22:02 46.02673 0.68074 28503 ft 461 kts 346°
2026-05-07 22:02 46.05815 0.67202 28899 ft 460 kts 346°
2026-05-07 22:03 46.08957 0.66329 29322 ft 458 kts 346°
2026-05-07 22:03 46.12085 0.65460 29721 ft 457 kts 346°
2026-05-07 22:03 46.15164 0.64602 30083 ft 457 kts 345°
2026-05-07 22:03 46.18320 0.63721 30394 ft 456 kts 346°
2026-05-07 22:04 46.21398 0.62861 30662 ft 456 kts 346°
2026-05-07 22:04 46.24515 0.61988 30904 ft 456 kts 346°
2026-05-07 22:04 46.27637 0.61113 31142 ft 457 kts 346°
2026-05-07 22:04 46.30760 0.60237 31377 ft 457 kts 346°
2026-05-07 22:05 46.33883 0.59360 31615 ft 457 kts 346°
2026-05-07 22:05 46.37009 0.58482 31853 ft 458 kts 346°
2026-05-07 22:05 46.40136 0.57602 32059 ft 458 kts 346°
2026-05-07 22:05 46.43266 0.56720 32273 ft 459 kts 346°
2026-05-07 22:06 46.46403 0.55834 32494 ft 459 kts 346°
2026-05-07 22:06 46.49537 0.54950 32707 ft 459 kts 346°
2026-05-07 22:06 46.52681 0.54099 32910 ft 460 kts 350°
2026-05-07 22:06 46.55883 0.53776 33096 ft 463 kts 359°
2026-05-07 22:07 46.59093 0.54215 33263 ft 466 kts
2026-05-07 22:07 46.62295 0.55041 33429 ft 467 kts 10°
2026-05-07 22:07 46.65477 0.56015 33630 ft 467 kts 11°
2026-05-07 22:07 46.68604 0.57052 33829 ft 467 kts 12°
2026-05-07 22:08 46.71776 0.58135 33979 ft 468 kts 12°
2026-05-07 22:08 46.74955 0.59225 33991 ft 468 kts 12°
2026-05-07 22:08 46.81303 0.61373 33996 ft 467 kts 12°
2026-05-07 22:09 46.87636 0.63485 33997 ft 467 kts 12°
2026-05-07 22:09 46.93979 0.65592 34004 ft 467 kts 12°
2026-05-07 22:10 47.00290 0.67692 34021 ft 467 kts 11°
2026-05-07 22:10 47.06686 0.69283 34021 ft 465 kts
2026-05-07 22:11 47.13136 0.70091 34029 ft 465 kts
2026-05-07 22:11 47.19607 0.70756 34018 ft 465 kts
2026-05-07 22:12 47.26073 0.71405 34021 ft 465 kts
2026-05-07 22:12 47.32486 0.72064 34022 ft 465 kts
2026-05-07 22:13 47.38937 0.72739 34029 ft 465 kts
2026-05-07 22:13 47.45382 0.73419 34021 ft 464 kts
2026-05-07 22:14 47.51745 0.75060 34023 ft 466 kts 14°
2026-05-07 22:14 47.57955 0.77890 34022 ft 467 kts 17°
2026-05-07 22:15 47.64123 0.80949 34024 ft 467 kts 17°
2026-05-07 22:15 47.70265 0.84027 34011 ft 466 kts 17°
2026-05-07 22:16 47.76423 0.87093 34027 ft 466 kts 17°
2026-05-07 22:16 47.82528 0.90125 34029 ft 465 kts 17°
2026-05-07 22:17 47.88639 0.93185 34029 ft 465 kts 17°
2026-05-07 22:17 47.94762 0.96282 34028 ft 465 kts 17°
2026-05-07 22:18 48.03946 1.00944 34034 ft 464 kts 17°
2026-05-07 22:19 48.10064 1.04057 34037 ft 464 kts 17°
2026-05-07 22:19 48.16176 1.07172 34040 ft 464 kts 17°
2026-05-07 22:20 48.22290 1.10296 34053 ft 464 kts 17°
2026-05-07 22:20 48.28393 1.13408 34042 ft 462 kts 17°
2026-05-07 22:21 48.34479 1.16513 34045 ft 462 kts 17°
2026-05-07 22:21 48.40531 1.19609 34048 ft 462 kts 17°
2026-05-07 22:22 48.46618 1.22732 34051 ft 461 kts 17°
2026-05-07 22:22 48.52697 1.25860 34051 ft 461 kts 17°
2026-05-07 22:23 48.58779 1.28965 34053 ft 461 kts 17°
2026-05-07 22:23 48.64827 1.32010 34063 ft 461 kts 16°
2026-05-07 22:24 48.70922 1.35078 34052 ft 460 kts 16°
2026-05-07 22:24 48.76996 1.38149 34053 ft 460 kts 16°
2026-05-07 22:25 48.83070 1.41231 34055 ft 460 kts 16°
2026-05-07 22:25 48.89141 1.44321 34054 ft 460 kts 16°
2026-05-07 22:26 48.95145 1.47720 34052 ft 462 kts 26°
2026-05-07 22:26 49.00307 1.53500 34057 ft 464 kts 44°
2026-05-07 22:27 49.04719 1.60630 34058 ft 465 kts 48°
2026-05-07 22:27 49.08992 1.68054 34063 ft 465 kts 49°
2026-05-07 22:28 49.13244 1.75483 34064 ft 464 kts 49°
2026-05-07 22:28 49.17524 1.82910 34070 ft 465 kts 48°
2026-05-07 22:29 49.21085 1.89071 34074 ft 465 kts 48°
2026-05-07 22:29 49.26096 1.97756 34075 ft 465 kts 48°
2026-05-07 22:30 49.30351 2.05154 34077 ft 465 kts 48°
2026-05-07 22:30 49.34618 2.12597 34075 ft 464 kts 48°
2026-05-07 22:31 49.38871 2.20039 34075 ft 464 kts 48°
2026-05-07 22:31 49.43127 2.27509 34075 ft 464 kts 48°
2026-05-07 22:32 49.46657 2.33718 34075 ft 464 kts 48°
2026-05-07 22:32 49.50899 2.41201 34086 ft 464 kts 49°
2026-05-07 22:33 49.55313 2.48407 34077 ft 461 kts 38°
2026-05-07 22:33 49.60545 2.54091 34077 ft 460 kts 32°
2026-05-07 22:34 49.65956 2.59376 34078 ft 460 kts 30°
2026-05-07 22:34 49.71403 2.64594 34078 ft 460 kts 30°
2026-05-07 22:35 49.76827 2.69830 34078 ft 459 kts 31°
2026-05-07 22:35 49.82225 2.75085 34075 ft 458 kts 31°
2026-05-07 22:36 49.87614 2.80357 34080 ft 458 kts 31°
2026-05-07 22:36 49.92995 2.85636 34078 ft 458 kts 31°
2026-05-07 22:37 49.98374 2.90925 34078 ft 457 kts 31°
2026-05-07 22:37 50.03715 2.96191 34077 ft 457 kts 31°
2026-05-07 22:38 50.09082 3.01495 34075 ft 457 kts 31°
2026-05-07 22:38 50.14456 3.06822 34075 ft 457 kts 31°
2026-05-07 22:39 50.19816 3.12149 34076 ft 456 kts 31°
2026-05-07 22:39 50.25375 3.16869 34076 ft 454 kts 23°
2026-05-07 22:40 50.31111 3.21003 33891 ft 455 kts 22°
2026-05-07 22:40 50.34012 3.23037 32970 ft 460 kts 22°
2026-05-07 22:40 50.36957 3.25091 31956 ft 466 kts 22°
2026-05-07 22:40 50.39880 3.27135 31278 ft 465 kts 22°
2026-05-07 22:41 50.42798 3.29277 30721 ft 461 kts 24°
2026-05-07 22:41 50.45668 3.31486 30189 ft 456 kts 25°
2026-05-07 22:41 50.48494 3.33710 29575 ft 452 kts 25°
2026-05-07 22:41 50.51285 3.35915 29046 ft 446 kts 24°
2026-05-07 22:42 50.54071 3.37991 28517 ft 440 kts 23°
2026-05-07 22:42 50.56680 3.39830 28022 ft 434 kts 22°
2026-05-07 22:42 50.59432 3.41715 27501 ft 429 kts 21°
2026-05-07 22:42 50.61842 3.43350 27058 ft 425 kts 21°
2026-05-07 22:43 50.64545 3.45183 26533 ft 421 kts 21°
2026-05-07 22:43 50.67190 3.46984 26024 ft 418 kts 21°
2026-05-07 22:43 50.69854 3.48810 25502 ft 414 kts 22°
2026-05-07 22:43 50.72488 3.50626 24997 ft 411 kts 22°
2026-05-07 22:44 50.75104 3.52436 24488 ft 408 kts 22°
2026-05-07 22:44 50.77700 3.54236 23988 ft 406 kts 22°
2026-05-07 22:44 50.80274 3.56026 23448 ft 403 kts 22°
2026-05-07 22:44 50.82836 3.57809 22924 ft 399 kts 22°
2026-05-07 22:45 50.85364 3.59572 22414 ft 395 kts 22°
2026-05-07 22:45 50.87859 3.61312 21913 ft 390 kts 22°
2026-05-07 22:45 50.90375 3.62869 21413 ft 385 kts 13°
2026-05-07 22:45 50.92983 3.63571 20931 ft 378 kts
2026-05-07 22:46 50.95558 3.63882 20450 ft 374 kts
2026-05-07 22:46 50.98149 3.64097 19971 ft 370 kts
2026-05-07 22:46 51.00698 3.64279 19508 ft 367 kts
2026-05-07 22:46 51.03235 3.64449 19037 ft 363 kts
2026-05-07 22:47 51.05754 3.64614 18561 ft 361 kts
2026-05-07 22:47 51.08253 3.64776 18052 ft 358 kts
2026-05-07 22:47 51.10727 3.64935 17584 ft 353 kts
2026-05-07 22:47 51.13174 3.65092 17132 ft 349 kts
2026-05-07 22:48 51.15589 3.65247 16676 ft 346 kts
2026-05-07 22:48 51.17989 3.65401 16214 ft 344 kts
2026-05-07 22:48 51.20366 3.65553 15768 ft 342 kts
2026-05-07 22:48 51.22700 3.65923 15320 ft 341 kts 12°
2026-05-07 22:49 51.24920 3.67328 14883 ft 340 kts 30°
2026-05-07 22:49 51.26895 3.69407 14436 ft 339 kts 34°
2026-05-07 22:49 51.28802 3.71604 14000 ft 337 kts 36°
2026-05-07 22:49 51.30671 3.73781 13522 ft 334 kts 36°
2026-05-07 22:50 51.32545 3.75956 13058 ft 331 kts 36°
2026-05-07 22:50 51.34405 3.78110 12640 ft 328 kts 36°
2026-05-07 22:50 51.36250 3.80241 12202 ft 326 kts 36°
2026-05-07 22:50 51.38084 3.82358 11777 ft 323 kts 36°
2026-05-07 22:51 51.39903 3.84459 11349 ft 321 kts 36°
2026-05-07 22:51 51.41705 3.86539 10922 ft 319 kts 36°
2026-05-07 22:51 51.43501 3.88615 10509 ft 317 kts 36°
2026-05-07 22:51 51.45256 3.90646 10184 ft 311 kts 36°
2026-05-07 22:52 51.45843 3.91326 10143 ft 305 kts 36°
2026-05-07 22:52 51.46760 3.92389 10111 ft 297 kts 36°
2026-05-07 22:52 51.48362 3.94247 9922 ft 288 kts 36°
2026-05-07 22:52 51.49991 3.96137 9458 ft 289 kts 36°
2026-05-07 22:53 51.51612 3.98019 9077 ft 286 kts 36°
2026-05-07 22:53 51.53220 3.99887 8700 ft 284 kts 35°
2026-05-07 22:53 51.54812 4.01739 8324 ft 282 kts 36°
2026-05-07 22:53 51.56398 4.03584 7940 ft 280 kts 36°
2026-05-07 22:54 51.57966 4.05412 7581 ft 279 kts 35°
2026-05-07 22:54 51.59534 4.07240 7228 ft 277 kts 35°
2026-05-07 22:54 51.61089 4.09056 6867 ft 275 kts 36°
2026-05-07 22:54 51.62633 4.10859 6511 ft 273 kts 36°
2026-05-07 22:55 51.64169 4.12652 6136 ft 272 kts 36°
2026-05-07 22:55 51.65697 4.14437 5738 ft 272 kts 36°
2026-05-07 22:55 51.67227 4.16228 5310 ft 272 kts 37°
2026-05-07 22:55 51.68732 4.17992 4950 ft 269 kts 37°
2026-05-07 22:56 51.70241 4.19762 4581 ft 267 kts 37°
2026-05-07 22:56 51.71737 4.21519 4245 ft 264 kts 37°
2026-05-07 22:56 51.73258 4.23161 3892 ft 263 kts 28°
2026-05-07 22:56 51.75003 4.23943 3558 ft 262 kts
2026-05-07 22:57 51.76815 4.23719 3216 ft 261 kts 352°
2026-05-07 22:57 51.78020 4.23403 2985 ft 260 kts 351°
2026-05-07 22:57 51.80375 4.22725 2531 ft 258 kts 351°
2026-05-07 22:57 51.82139 4.22222 2192 ft 258 kts 352°
2026-05-07 22:58 51.83902 4.21743 2006 ft 253 kts 355°
2026-05-07 22:58 51.85551 4.22023 2021 ft 227 kts 24°
2026-05-07 22:58 51.86835 4.23243 2020 ft 202 kts 41°
2026-05-07 22:58 51.87791 4.24641 2023 ft 174 kts 50°
2026-05-07 22:59 51.88458 4.26074 2001 ft 147 kts 59°
2026-05-07 22:59 51.89003 4.27398 1996 ft 139 kts 59°
2026-05-07 22:59 51.89528 4.28708 1999 ft 139 kts 60°
2026-05-07 22:59 51.90061 4.30023 1937 ft 140 kts 59°
2026-05-07 23:00 51.90597 4.31332 1756 ft 139 kts 59°
2026-05-07 23:00 51.91124 4.32642 1552 ft 139 kts 60°
2026-05-07 23:00 51.91649 4.33952 1367 ft 138 kts 59°
2026-05-07 23:00 51.92172 4.35255 1171 ft 138 kts 59°
2026-05-07 23:01 51.92693 4.36555 982 ft 137 kts 59°
2026-05-07 23:01 51.93213 4.37854 793 ft 137 kts 58°
2026-05-07 23:01 51.93735 4.39153 593 ft 137 kts 58°
2026-05-07 23:01 51.94256 4.40444 396 ft 136 kts 56°
2026-05-07 23:02 51.94766 4.41727 218 ft 136 kts 57°
2026-05-07 23:02 51.95282 4.43010 31 ft 136 kts 57°
2026-05-07 23:02 51.95751 4.44171 -2 ft 93 kts 58°
2026-05-07 23:02 51.95913 4.44635 -2 ft 23 kts 90°
2026-05-07 23:03 51.95822 4.44761 -2 ft 16 kts 167°
2026-05-07 23:03 51.95748 4.44668 -2 ft 12 kts 240°
2026-05-07 23:03 51.95702 4.44550 -2 ft 12 kts 236°
2026-05-07 23:03 51.95670 4.44472 -2 ft 13 kts 236°
2026-05-07 23:04 51.95621 4.44353 -2 ft 13 kts 239°
2026-05-07 23:04 51.95559 4.44191 -2 ft 13 kts 237°
2026-05-07 23:04 51.95514 4.44078 -2 ft 11 kts 236°
2026-05-07 23:04 51.95464 4.43954 -2 ft 15 kts 238°
2026-05-07 23:05 51.95403 4.43798 -2 ft 18 kts 239°
2026-05-07 23:05 51.95332 4.43628 -2 ft 18 kts 238°
2026-05-07 23:05 51.95263 4.43458 -2 ft 14 kts 229°
2026-05-07 23:05 51.95232 4.43447 -2 ft 2 kts 151°
2026-05-07 23:06 51.95200 4.43479 -2 ft 9 kts 147°
2026-05-07 23:06 51.95128 4.43556 -3 ft 17 kts 147°
2026-05-07 23:06 51.95011 4.43638 -3 ft 15 kts 225°
2026-05-07 23:06 51.94961 4.43511 -3 ft 9 kts 258°
2026-05-07 23:07 51.94992 4.43450 -3 ft 2 kts 325°
2026-05-07 23:07 51.94983 4.43459 -3 ft 1 kts 326°
2026-05-07 23:07 51.94989 4.43453 -3 ft 0 kts 327°